Flag for Germany Weather past 2 weeks in Schweinfurt, Bavaria, Germany

Now
46 °F

Overcast.


Feels Like: 41 °F
Forecast: 44 / 53 °F
Wind: 9 mph from West

Location: Wuerzburg

Current Time: Oct 22, 2014 at 2:08:53 AM

Latest Report: Oct 22, 2014 at 1:00 AM


Visibility: 22 mi

Pressure: 29.88 "Hg

Humidity: 78%

Dew point: 39 °F

Location of SchweinfurtLocation

Historic Weather in Schweinfurt — Graph

°F

Schweinfurt temperature yesterday

Maximum temperature yesterday: 59 °F (at 3:00 PM)
Minimum temperature yesterday: 47 °F (at 10:00 PM)
Average temperature yesterday: 53 °F

Past Weeks' High & Low Weather Summary

 TemperatureHumidityPressure
High75 °F (Oct 9, 4:00 PM)100% (Oct 7, 8:00 AM)30.25 "Hg (Oct 7, 8:00 AM)
Low46 °F (Oct 22, 12:00 AM)51% (Oct 9, 5:00 PM)29.59 "Hg (Oct 21, 7:00 PM)
Average58 °F90%29.91 "Hg
* Reported Oct 7 1:00 AM — Oct 22 1:00 AM, Schweinfurt, Weather by CustomWeather, © 2014

Note: Actual official high and low records may vary slightly from our data, if they occured in-between our weather recording intervals... More about our weather records

Advertising

Schweinfurt weather history for previous 24 hours

 ConditionsComfort  
Time TempWeatherWind HumidityBarometerVisibility
1:00 AM
Oct 22
46 °FOvercast.9 mph78%29.88 "Hg22 mi
12:00 AM46 °FPassing clouds.12 mph80%29.82 "Hg22 mi
11:00 PM
Oct 21
47 °FPassing clouds.9 mph84%29.76 "Hg22 mi
10:00 PM47 °FPassing clouds.10 mph87%29.71 "Hg17 mi
9:00 PM49 °FOvercast.9 mph91%29.64 "Hg17 mi
8:00 PM50 °FRain showers. Overcast.12 mph93%29.64 "Hg1 mi
7:00 PM55 °FOvercast.9 mph84%29.59 "Hg28 mi
6:00 PM56 °FLight rain. Overcast.8 mph80%29.63 "Hg22 mi
5:00 PM57 °FLight rain. Overcast.9 mph70%29.67 "Hg16 mi
4:00 PM58 °FOvercast.9 mph68%29.71 "Hg31 mi
3:00 PM59 °FOvercast.10 mph66%29.74 "Hg37 mi
2:00 PM59 °FOvercast.9 mph69%29.78 "Hg28 mi
1:00 PM58 °FPartly sunny.8 mph73%29.83 "Hg28 mi
12:00 PM56 °FOvercast.7 mph77%29.87 "Hg22 mi
11:00 AM55 °FScattered clouds.7 mph79%29.88 "Hg19 mi
10:00 AM53 °FScattered clouds.2 mph93%29.91 "Hg11 mi
9:00 AM50 °FPartly sunny.2 mph94%29.93 "Hg11 mi
8:00 AM49 °FOvercast.2 mph96%29.93 "Hg14 mi
7:00 AM48 °FPassing clouds.2 mph97%29.95 "Hg16 mi
6:00 AM48 °FClear.1 mph97%29.95 "Hg16 mi
5:00 AM49 °FClear.2 mph95%29.96 "Hg16 mi
4:00 AM51 °FClear.2 mph96%29.97 "Hg19 mi
3:00 AM52 °FClear.3 mph95%29.98 "Hg19 mi
2:00 AM51 °FPassing clouds.2 mph96%29.99 "Hg16 mi
Weather by CustomWeather, © 2014

See weather overviewHow to use our weather pages